Regional Weather Roundup
Issued by NWS

Home | Current Version | Previous Version | Graphics & Text | Print | Product List | Glossary On
Versions: 1 2 3 4 5 6 7 8 9 10 11 12 13 14 15 16 17 18 19 20 21 22 23 24 25 26 27 28 29 30 31 32 33 34 35 36 37 38 39 40 41 42 43 44 45 46 47 48 49 50
683
ASUS43 KFSD 170302
RWRSD

WEATHER ROUNDUP FOR SOUTH DAKOTA
NATIONAL WEATHER SERVICE SIOUX FALLS SD
1000 PM CDT MON OCT 16 2017

NOTE: "FAIR" INDICATES FEW OR NO CLOUDS BELOW 12,000 FEET WITH NO
SIGNIFICANT WEATHER AND/OR OBSTRUCTIONS TO VISIBILITY.


SDZ001>005-009-010-012>017-170400-
NORTHWEST AND NORTH CENTRAL SOUTH DAKOTA

CITY           SKY/WX    TMP DP  RH WIND       PRES   REMARKS
BUFFALO          N/A     53  27  36 SW5       29.99S
FAITH            N/A     55  29  36 W8        30.05S
MOBRIDGE       CLEAR     51  36  56 NW8       29.97S
$$

SDZ012>016-024>037-041>051-057-063-072>074-170400-
SOUTHWEST AND SOUTH CENTRAL SOUTH DAKOTA

CITY           SKY/WX    TMP DP  RH WIND       PRES   REMARKS
RAPID CTY ARPT CLEAR     49  29  46 CALM      30.10S
PIERRE         CLEAR     52  38  58 W6        30.01R
CUSTER         CLEAR     47  21  35 W5        30.20R
PHILIP         CLEAR     48  36  63 W9        30.06R
PINE RIDGE     CLEAR     40  33  76 CALM      30.12F
SPEARFISH      FAIR      54  27  35 CALM      30.13R
WINNER         FAIR      49  40  71 SW6       30.05R
$$

SDZ004>011-016>023-039-040-170400-
NORTHEAST SOUTH DAKOTA

CITY           SKY/WX    TMP DP  RH WIND       PRES   REMARKS
ABERDEEN       CLEAR     42  38  85 SW5       29.97R
WATERTOWN      CLEAR     46  41  82 SW7       29.98R
BROOKINGS      CLEAR     51  40  65 SW3       30.00S
SISSETON         N/A     57  43  59 SW10      29.93R
$$

SDZ017-020-022-023-036>040-048>070-170400-
SOUTHEAST SOUTH DAKOTA

CITY           SKY/WX    TMP DP  RH WIND       PRES   REMARKS
SIOUX FALLS    CLOUDY    50  40  68 CALM      30.01R
HURON          CLEAR     52  41  66 SW6       29.99R
MITCHELL       CLOUDY    51  42  71 SW3       30.01S
YANKTON        CLEAR     60  40  47 S7        30.03S
$$

ABBREVIATIONS USED IN REMARKS
   TC - TEMPERATURE IN CELSIUS
  WCI - WIND CHILL INDEX
   HX - HEAT INDEX
  VSB - VISIBILITY





USA.gov is the U.S. government's official web portal to all federal, state and local government web resources and services.